{"data":{"norad_id":58451,"epoch":"2026-05-24T21:58:17.567904Z","epoch_age_seconds":92418,"freshness":"FRESH","line1":"1 58451U 23183Q   26144.91548111  .00002079  00000+0  85076-4 0  9994","line2":"2 58451  43.0020 331.0024 0001915 259.3354 100.7282 15.27577462138361","mean_motion":15.27577462,"eccentricity":0.0001915,"inclination_deg":43.002,"raan_deg":331.0024,"arg_perigee_deg":259.3354,"mean_anomaly_deg":100.7282,"bstar":8.5076e-5,"rev_number":13836,"period_min":94.266905333538,"perigee_km":481.74277714248,"apogee_km":484.37061432795,"semimajor_km":6861.1936957352,"source":"CELESTRAK","updated_at":"2026-05-25T13:38:18.624847Z"}}